Find Shiyan 20B

NORAD ID: 54700 Int'l Des: 2022-169 Owner: SAST Country: CN operational
LEOCIRCULAR

現在のビュー

3D地球を読み込み中...

About Shiyan 20B

Shiyan 20B (NORAD 54700) is a satellite launched Dec 12, 2022 by SAST of CN. It operates in LEO, CIRCULAR orbit with a mass of 500.00 kg.

次回通過

Passes for default location (London). Set your location on the main map for personalized predictions.

高度履歴

Loading altitude history...

軌道要素

1 54700U 22169B 26195.58471211 -.00000057 00000-0 31125-4 0 9997
2 54700 59.9961 149.9664 0007996 244.4463 115.5746 14.29547807187275
Epoch: Jul 14, 2026 • Age: 6 hours

現在のステータス

高度 809.3 km
遠地点 / 近地点 N/A
速度 7.45 km/s
衛星直下点 -56.09°S, 148.41°W
打ち上げ日 Dec 12, 2022
運用期間 3.5 years
タイプ other

技術仕様

分類 Payload
質量 500.00 kg
乾燥質量 500.00 kg
総質量 500.00 kg
長さ 2.50 m
直径 2.50 m
スパン 5.00 m
形状 Box + 2 Pan
製造者 SAST
フェーズステータス In Orbit
所有者/国 SAST/CN

Most Searched